Brownsville, TX

9:58 PM CST on November 24, 2017 (GMT -0600)
Brownsville-South Padre I International

Weather History for KBRO - August, 2013

Change the Weather History Date:

Tuesday, August 6, 2013

  Actual Average Record
Temperature  
Mean Temperature 90 °F 86 °F  
Max Temperature 98 °F 95 °F 100 °F (1998)
Min Temperature 81 °F 76 °F 69 °F (1972)
Degree Days  
Heating Degree Days 0 0  
Month to date heating degree days 0 0  
Since 1 June heating degree days 0 0  
Since 1 July heating degree days 0 0  
Cooling Degree Days 25 21  
Month to date cooling degree days 139 126  
Year to date cooling degree days 2516 2404  
Since 1 June cooling degree days 1394 1311  
Growing Degree Days 40 (Base 50)    
Moisture  
Dew Point 75 °F    
Average Humidity 68    
Maximum Humidity 94    
Minimum Humidity 42    
Precipitation  
Precipitation 0.00 in 0.06 in 3.08 in (2012)
Month to date precipitation 0.00 0.35  
Year to date precipitation 8.58 12.72  
Sea Level Pressure  
Sea Level Pressure 29.92 in    
Wind  
Wind Speed 19 mph (SSE)    
Max Wind Speed 29 mph    
Max Gust Speed 38 mph    
Visibility 10 miles    
Events      
T = Trace of Precipitation, MM = Missing Value Source: NWS Daily Summary

Daily Weather History Graph

Daily Weather History Graph

Search for Another Location

Airport or City:

Trip Planner

Search our weather history database for the weather conditions in past years. The results will help you decide how hot, cold, wet, or windy it might be!

Date:

Astronomy

Aug. 06, 2013 Rise Set
Actual Time 6:58 AM CDT 8:12 PM CDT
Civil Twilight 6:33 AM CDT 8:36 PM CDT
Nautical Twilight 6:04 AM CDT 9:05 PM CDT
Astronomical Twilight 5:34 AM CDT 9:35 PM CDT
Moon 6:45 AM CDT (8/6) 7:56 PM CDT (8/6)
Length of Visible Light 14h 02m
Length of Day
13h 13m
Waning Crescent, 0% of the Moon is Illuminated
Aug 6
Waning Crescent
Aug 6
New
Aug 14
First Quarter
Aug 20
Full
Aug 28
Last Quarter

Hourly Weather History & Observations

Time (CDT) Temp. Heat Index Dew Point Humidity Pressure Visibility Wind Dir Wind Speed Gust Speed Precip Events Conditions
12:53 AM 82.9 °F 92.8 °F 78.1 °F 85% 29.95 in 10.0 mi SSE 15.0 mph - N/A   Clear
1:53 AM 82.0 °F 91.0 °F 78.1 °F 88% 29.95 in 10.0 mi South 15.0 mph - N/A   Clear
2:53 AM 82.0 °F 91.0 °F 78.1 °F 88% 29.94 in 10.0 mi SSE 16.1 mph - N/A   Clear
3:53 AM 82.0 °F 91.0 °F 78.1 °F 88% 29.93 in 10.0 mi SSE 13.8 mph - N/A   Clear
4:53 AM 82.0 °F 91.0 °F 78.1 °F 88% 29.92 in 10.0 mi South 11.5 mph - N/A   Clear
5:53 AM 81.0 °F 88.6 °F 78.1 °F 91% 29.92 in 10.0 mi South 10.4 mph - N/A   Clear
6:53 AM 81.0 °F 88.6 °F 78.1 °F 91% 29.94 in 10.0 mi South 10.4 mph - N/A   Clear
7:53 AM 82.0 °F 91.0 °F 78.1 °F 88% 29.95 in 10.0 mi South 12.7 mph - N/A   Clear
8:53 AM 86.0 °F 96.9 °F 77.0 °F 74% 29.96 in 10.0 mi South 17.3 mph - N/A   Clear
9:53 AM 89.1 °F 98.0 °F 73.9 °F 61% 29.96 in 10.0 mi South 25.3 mph 34.5 mph N/A   Clear
10:53 AM 91.9 °F 100.7 °F 73.0 °F 54% 29.96 in 10.0 mi South 25.3 mph 34.5 mph N/A   Clear
11:12 AM 93.2 °F 102.4 °F 73.4 °F 52% 29.96 in 10.0 mi South 25.3 mph 34.5 mph N/A   Mostly Cloudy
11:53 AM 93.9 °F 103.4 °F 73.0 °F 51% 29.96 in 10.0 mi South 20.7 mph 33.4 mph N/A   Overcast
12:53 PM 95.0 °F 102.5 °F 71.1 °F 46% 29.94 in 10.0 mi South 25.3 mph 35.7 mph N/A   Mostly Cloudy
1:53 PM 97.0 °F 104.8 °F 71.1 °F 43% 29.92 in 9.0 mi South 26.5 mph 34.5 mph N/A   Overcast
2:53 PM 98.1 °F 106.5 °F 71.1 °F 42% 29.91 in 10.0 mi SSE 24.2 mph 34.5 mph N/A   Mostly Cloudy
3:08 PM 98.6 °F 107.7 °F 71.6 °F 42% 29.90 in 10.0 mi SSE 21.9 mph 33.4 mph N/A   Scattered Clouds
3:28 PM 96.8 °F 107.3 °F 73.4 °F 47% 29.89 in 10.0 mi SSE 24.2 mph 33.4 mph N/A   Mostly Cloudy
3:53 PM 96.1 °F 104.9 °F 72.0 °F 46% 29.89 in 10.0 mi SSE 27.6 mph 38.0 mph N/A   Overcast
4:42 PM 95.0 °F 103.2 °F 71.6 °F 47% 29.88 in 10.0 mi SSE 24.2 mph 32.2 mph N/A   Partly Cloudy
4:53 PM 93.9 °F 103.4 °F 73.0 °F 51% 29.88 in 10.0 mi SSE 25.3 mph 33.4 mph N/A   Clear
5:53 PM 93.0 °F 100.7 °F 72.0 °F 50% 29.87 in 10.0 mi SSE 24.2 mph 34.5 mph N/A   Clear
6:53 PM 89.1 °F 98.0 °F 73.9 °F 61% 29.86 in 10.0 mi SSE 20.7 mph 29.9 mph N/A   Clear
7:53 PM 86.0 °F 96.0 °F 75.9 °F 72% 29.86 in 10.0 mi SE 20.7 mph 28.8 mph N/A   Clear
8:53 PM 84.0 °F 93.7 °F 77.0 °F 79% 29.87 in 10.0 mi SE 17.3 mph 26.5 mph N/A   Clear
9:53 PM 82.9 °F 92.8 °F 78.1 °F 85% 29.89 in 10.0 mi SSE 18.4 mph - N/A   Clear
10:53 PM 82.9 °F 92.8 °F 78.1 °F 85% 29.91 in 10.0 mi SSE 15.0 mph - N/A   Clear
11:53 PM 82.9 °F 92.8 °F 78.1 °F 85% 29.92 in 10.0 mi SSE 16.1 mph - N/A   Partly Cloudy